WMT7JF LRTR-EDFH

Flight info

Callsign WMT7JF
Flight time 1h 38m
Altitude 38000
Route MOPUG DCT MAVIR DCT GITAS DCT ARSIN DCT RENKA DCT MAMOR DCT PETIX Z744 LEPSA/N0360F240 Z104 OLGIL OLGIL4B
Aircraft A320/M-SDE1E2E3FGIJ1J4RWXY/LB1

Departure

Time 2026-05-01 13:18
Airport Timișoara Traian Vuia International Airport (LRTR)

Arrival

Time 2026-05-01 14:57
Airport Frankfurt-Hahn Airport (EDFH)
Time Latitude Longitude Altitude Speed Heading
2026-05-01 12:58 45.81041 21.32182 342 ft 0 kts 199°
2026-05-01 13:09 45.81042 21.32182 342 ft 2 kts 199°
2026-05-01 13:09 45.81066 21.32195 351 ft 4 kts 207°
2026-05-01 13:10 45.81087 21.32216 349 ft 4 kts 237°
2026-05-01 13:10 45.81092 21.32240 347 ft 0 kts 289°
2026-05-01 13:14 45.81099 21.32211 350 ft 7 kts 289°
2026-05-01 13:14 45.81128 21.32097 348 ft 16 kts 290°
2026-05-01 13:14 45.81175 21.31935 349 ft 19 kts 286°
2026-05-01 13:15 45.81222 21.31744 345 ft 22 kts 290°
2026-05-01 13:15 45.81258 21.31602 347 ft 9 kts 296°
2026-05-01 13:15 45.81319 21.31579 341 ft 11 kts 19°
2026-05-01 13:15 45.81387 21.31615 337 ft 0 kts 19°
2026-05-01 13:16 45.81391 21.31617 338 ft 3 kts 19°
2026-05-01 13:16 45.81435 21.31639 336 ft 10 kts 19°
2026-05-01 13:16 45.81490 21.31668 339 ft 5 kts 25°
2026-05-01 13:17 45.81469 21.31856 337 ft 37 kts 109°
2026-05-01 13:17 45.81299 21.32537 351 ft 104 kts 110°
2026-05-01 13:18 45.80594 21.35295 635 ft 175 kts 107°
2026-05-01 13:18 45.80297 21.36388 1062 ft 178 kts 109°
2026-05-01 13:18 45.79833 21.38017 1876 ft 176 kts 114°
2026-05-01 13:18 45.78966 21.39307 2459 ft 194 kts 153°
2026-05-01 13:19 45.77573 21.39511 2803 ft 217 kts 197°
2026-05-01 13:19 45.76329 21.38216 3151 ft 235 kts 239°
2026-05-01 13:19 45.76663 21.33628 4417 ft 256 kts 316°
2026-05-01 13:20 45.78115 21.32162 5389 ft 257 kts 334°
2026-05-01 13:20 45.79753 21.31110 6419 ft 260 kts 339°
2026-05-01 13:20 45.81421 21.30077 7360 ft 264 kts 332°
2026-05-01 13:21 45.84303 21.26627 9168 ft 276 kts 316°
2026-05-01 13:21 45.85573 21.24526 10105 ft 281 kts 313°
2026-05-01 13:21 45.86819 21.22302 10679 ft 296 kts 312°
2026-05-01 13:21 45.88148 21.19902 10995 ft 316 kts 312°
2026-05-01 13:22 45.89541 21.17406 11653 ft 323 kts 313°
2026-05-01 13:22 45.90963 21.14888 12405 ft 327 kts 313°
2026-05-01 13:22 45.92415 21.12348 13159 ft 331 kts 313°
2026-05-01 13:22 45.93892 21.09788 13912 ft 335 kts 314°
2026-05-01 13:23 45.95392 21.07205 14588 ft 338 kts 314°
2026-05-01 13:23 45.96907 21.04601 15247 ft 342 kts 314°
2026-05-01 13:23 45.98441 21.01961 15894 ft 345 kts 315°
2026-05-01 13:23 45.99982 20.99300 16540 ft 348 kts 315°
2026-05-01 13:24 46.01538 20.96604 17191 ft 352 kts 315°
2026-05-01 13:24 46.03109 20.93882 17840 ft 355 kts 316°
2026-05-01 13:24 46.04694 20.91136 18489 ft 358 kts 316°
2026-05-01 13:25 46.07907 20.85566 19630 ft 365 kts 317°
2026-05-01 13:25 46.09536 20.82739 20220 ft 368 kts 317°
2026-05-01 13:25 46.11178 20.79885 20795 ft 371 kts 317°
2026-05-01 13:25 46.12831 20.77002 21346 ft 374 kts 317°
2026-05-01 13:26 46.14493 20.74099 21880 ft 378 kts 317°
2026-05-01 13:26 46.16076 20.71025 22392 ft 388 kts 309°
2026-05-01 13:26 46.17290 20.67473 22884 ft 402 kts 299°
2026-05-01 13:26 46.18301 20.63702 23385 ft 405 kts 299°
2026-05-01 13:27 46.19325 20.59889 23876 ft 409 kts 299°
2026-05-01 13:27 46.20358 20.56040 24284 ft 413 kts 299°
2026-05-01 13:27 46.22448 20.48267 25086 ft 420 kts 300°
2026-05-01 13:28 46.24556 20.40394 25893 ft 426 kts 300°
2026-05-01 13:28 46.25623 20.36394 26301 ft 429 kts 300°
2026-05-01 13:29 46.27786 20.28288 27101 ft 435 kts 300°
2026-05-01 13:29 46.29969 20.20065 27894 ft 441 kts 300°
2026-05-01 13:30 46.34411 20.03277 29438 ft 452 kts 300°
2026-05-01 13:31 46.36659 19.94717 30222 ft 458 kts 300°
2026-05-01 13:31 46.40191 19.81753 31242 ft 458 kts 307°
2026-05-01 13:32 46.43350 19.73940 31926 ft 456 kts 310°
2026-05-01 13:33 46.48183 19.62103 33362 ft 453 kts 310°
2026-05-01 13:33 46.51381 19.54227 34304 ft 452 kts 310°
2026-05-01 13:34 46.54552 19.46373 35089 ft 450 kts 309°
2026-05-01 13:34 46.57702 19.38542 35872 ft 448 kts 309°
2026-05-01 13:35 46.60840 19.30748 36618 ft 445 kts 308°
2026-05-01 13:35 46.62400 19.26874 36978 ft 444 kts 308°
2026-05-01 13:35 46.65513 19.19130 37677 ft 442 kts 308°
2026-05-01 13:36 46.67062 19.15267 38009 ft 441 kts 307°
2026-05-01 13:36 46.68603 19.11412 38279 ft 441 kts 307°
2026-05-01 13:36 46.71680 19.03682 38336 ft 441 kts 307°
2026-05-01 13:37 46.74754 18.95955 38338 ft 440 kts 307°
2026-05-01 13:37 46.77817 18.88240 38344 ft 440 kts 307°
2026-05-01 13:38 46.82401 18.76625 38339 ft 440 kts 307°
2026-05-01 13:39 46.85436 18.68924 38336 ft 440 kts 307°
2026-05-01 13:39 46.88316 18.61594 38344 ft 440 kts 307°
2026-05-01 13:40 46.91374 18.53766 38347 ft 440 kts 307°
2026-05-01 13:40 46.94387 18.46045 38350 ft 440 kts 307°
2026-05-01 13:41 46.97409 18.38270 38350 ft 439 kts 307°
2026-05-01 13:41 47.00427 18.30491 38351 ft 439 kts 307°
2026-05-01 13:42 47.03443 18.22707 38356 ft 439 kts 306°
2026-05-01 13:42 47.06434 18.14915 38353 ft 439 kts 306°
2026-05-01 13:43 47.09349 18.07048 38358 ft 439 kts 305°
2026-05-01 13:43 47.12233 17.99141 38363 ft 439 kts 305°
2026-05-01 13:44 47.15115 17.91243 38364 ft 438 kts 305°
2026-05-01 13:44 47.18007 17.83358 38364 ft 438 kts 305°
2026-05-01 13:45 47.20896 17.75480 38381 ft 438 kts 305°
2026-05-01 13:45 47.23777 17.67580 38363 ft 438 kts 305°
2026-05-01 13:46 47.26640 17.59665 38376 ft 438 kts 304°
2026-05-01 13:46 47.29504 17.51750 38361 ft 437 kts 305°
2026-05-01 13:47 47.32368 17.43847 38370 ft 437 kts 305°
2026-05-01 13:47 47.35217 17.35917 38365 ft 438 kts 304°
2026-05-01 13:48 47.38064 17.27972 38364 ft 438 kts 304°
2026-05-01 13:48 47.40905 17.20025 38366 ft 438 kts 304°
2026-05-01 13:49 47.43740 17.12076 38373 ft 437 kts 304°
2026-05-01 13:49 47.46558 17.04163 38370 ft 437 kts 304°
2026-05-01 13:50 47.49382 16.96205 38372 ft 437 kts 304°
2026-05-01 13:50 47.52193 16.88241 38374 ft 437 kts 304°
2026-05-01 13:51 47.54998 16.80261 38374 ft 437 kts 304°
2026-05-01 13:51 47.57750 16.72389 38370 ft 437 kts 303°
2026-05-01 13:52 47.60455 16.64307 38372 ft 438 kts 302°
2026-05-01 13:52 47.63086 16.56289 38379 ft 438 kts 302°
2026-05-01 13:53 47.65753 16.48173 38389 ft 438 kts 302°
2026-05-01 13:53 47.69763 16.36002 38384 ft 437 kts 302°
2026-05-01 13:54 47.72436 16.27886 38378 ft 437 kts 302°
2026-05-01 13:54 47.75095 16.19762 38384 ft 437 kts 302°
2026-05-01 13:55 47.77743 16.11629 38383 ft 438 kts 302°
2026-05-01 13:55 47.80392 16.03476 38381 ft 437 kts 302°
2026-05-01 13:56 47.83032 15.95333 38384 ft 437 kts 302°
2026-05-01 13:56 47.85620 15.87325 38386 ft 437 kts 302°
2026-05-01 13:57 47.87802 15.80536 38387 ft 437 kts 301°
2026-05-01 13:57 47.90871 15.70984 38376 ft 437 kts 301°
2026-05-01 13:58 47.93483 15.62816 38377 ft 437 kts 301°
2026-05-01 13:58 47.96079 15.54687 38380 ft 437 kts 301°
2026-05-01 13:59 47.98684 15.46495 38378 ft 436 kts 301°
2026-05-01 13:59 48.01275 15.38308 38375 ft 437 kts 301°
2026-05-01 14:00 48.03870 15.30091 38372 ft 437 kts 301°
2026-05-01 14:00 48.06457 15.21870 38373 ft 437 kts 301°
2026-05-01 14:01 48.09042 15.13629 38380 ft 437 kts 301°
2026-05-01 14:01 48.11623 15.05384 38386 ft 438 kts 300°
2026-05-01 14:02 48.13765 14.98520 38388 ft 438 kts 300°
2026-05-01 14:02 48.16333 14.90249 38383 ft 438 kts 300°
2026-05-01 14:03 48.18897 14.81972 38383 ft 438 kts 300°
2026-05-01 14:03 48.21456 14.73696 38378 ft 437 kts 300°
2026-05-01 14:04 48.24003 14.65413 38375 ft 438 kts 300°
2026-05-01 14:04 48.26492 14.57266 38369 ft 438 kts 300°
2026-05-01 14:05 48.29022 14.48995 38366 ft 438 kts 299°
2026-05-01 14:05 48.31555 14.40684 38361 ft 438 kts 299°
2026-05-01 14:06 48.34085 14.32366 38359 ft 438 kts 299°
2026-05-01 14:06 48.36604 14.24045 38364 ft 437 kts 299°
2026-05-01 14:07 48.39117 14.15705 38373 ft 437 kts 299°
2026-05-01 14:08 48.42881 14.03195 38372 ft 437 kts 299°
2026-05-01 14:08 48.45387 13.94847 38376 ft 437 kts 298°
2026-05-01 14:09 48.47878 13.86491 38378 ft 437 kts 298°
2026-05-01 14:09 48.50341 13.78172 38381 ft 437 kts 298°
2026-05-01 14:10 48.52820 13.69795 38380 ft 437 kts 298°
2026-05-01 14:10 48.55285 13.61429 38384 ft 437 kts 298°
2026-05-01 14:11 48.57708 13.53190 38383 ft 436 kts 298°
2026-05-01 14:11 48.61074 13.40384 38390 ft 438 kts 293°
2026-05-01 14:12 48.63062 13.31683 38385 ft 438 kts 292°
2026-05-01 14:12 48.65074 13.22996 38384 ft 437 kts 293°
2026-05-01 14:13 48.67132 13.14356 38387 ft 437 kts 294°
2026-05-01 14:13 48.69200 13.05715 38387 ft 436 kts 293°
2026-05-01 14:14 48.71247 12.97083 38385 ft 436 kts 293°
2026-05-01 14:14 48.73288 12.88430 38386 ft 436 kts 293°
2026-05-01 14:15 48.75310 12.79776 38389 ft 436 kts 292°
2026-05-01 14:15 48.77322 12.71129 38391 ft 435 kts 292°
2026-05-01 14:16 48.79336 12.62470 38391 ft 435 kts 292°
2026-05-01 14:16 48.81328 12.53866 38394 ft 435 kts 292°
2026-05-01 14:17 48.83328 12.45200 38395 ft 435 kts 292°
2026-05-01 14:17 48.85279 12.36723 38395 ft 434 kts 292°
2026-05-01 14:18 48.87261 12.28060 38394 ft 434 kts 292°
2026-05-01 14:18 48.89013 12.20883 38393 ft 431 kts 298°
2026-05-01 14:19 48.92051 12.11370 38391 ft 430 kts 298°
2026-05-01 14:19 48.94654 12.03180 38398 ft 430 kts 298°
2026-05-01 14:20 48.98542 11.90863 38379 ft 430 kts 298°
2026-05-01 14:21 49.01124 11.82653 38377 ft 430 kts 298°
2026-05-01 14:21 49.03693 11.74459 38377 ft 430 kts 298°
2026-05-01 14:22 49.07557 11.62129 38372 ft 430 kts 298°
2026-05-01 14:22 49.10106 11.53935 38369 ft 430 kts 297°
2026-05-01 14:23 49.12662 11.45691 38375 ft 430 kts 297°
2026-05-01 14:23 49.15185 11.37539 38372 ft 430 kts 297°
2026-05-01 14:24 49.17732 11.29256 38375 ft 430 kts 297°
2026-05-01 14:24 49.20277 11.20979 38373 ft 430 kts 297°
2026-05-01 14:25 49.22801 11.12743 38371 ft 430 kts 297°
2026-05-01 14:25 49.25329 11.04450 38373 ft 430 kts 297°
2026-05-01 14:26 49.29103 10.92010 38374 ft 429 kts 297°
2026-05-01 14:27 49.31615 10.83718 38371 ft 429 kts 297°
2026-05-01 14:27 49.34207 10.75480 38366 ft 428 kts 303°
2026-05-01 14:28 49.39353 10.64363 38372 ft 426 kts 308°
2026-05-01 14:28 49.42826 10.57003 38375 ft 426 kts 307°
2026-05-01 14:29 49.46289 10.49625 38352 ft 425 kts 307°
2026-05-01 14:30 49.53184 10.34850 38348 ft 425 kts 307°
2026-05-01 14:31 49.58267 10.23917 38352 ft 425 kts 307°
2026-05-01 14:31 49.61700 10.16509 38357 ft 425 kts 307°
2026-05-01 14:32 49.65142 10.09068 37675 ft 431 kts 307°
2026-05-01 14:32 49.66889 10.05290 36988 ft 433 kts 307°
2026-05-01 14:32 49.68593 10.01597 36461 ft 431 kts 307°
2026-05-01 14:32 49.70347 9.97785 35554 ft 439 kts 307°
2026-05-01 14:33 49.72000 9.93800 34876 ft 442 kts 299°
2026-05-01 14:33 49.73312 9.89492 34290 ft 442 kts 296°
2026-05-01 14:33 49.74564 9.85246 33752 ft 439 kts 296°
2026-05-01 14:33 49.75841 9.80930 33275 ft 434 kts 296°
2026-05-01 14:34 49.77092 9.76700 32766 ft 430 kts 296°
2026-05-01 14:34 49.78328 9.72517 32284 ft 422 kts 296°
2026-05-01 14:34 49.79522 9.68466 31838 ft 406 kts 296°
2026-05-01 14:34 49.80661 9.64597 31419 ft 397 kts 296°
2026-05-01 14:35 49.81813 9.60671 30972 ft 395 kts 294°
2026-05-01 14:35 49.82692 9.56651 30556 ft 394 kts 285°
2026-05-01 14:35 49.83348 9.52599 30108 ft 392 kts 285°
2026-05-01 14:35 49.84009 9.48524 29712 ft 388 kts 285°
2026-05-01 14:36 49.84663 9.44483 29320 ft 385 kts 285°
2026-05-01 14:36 49.85312 9.40476 28929 ft 382 kts 285°
2026-05-01 14:36 49.85940 9.36591 28571 ft 378 kts 285°
2026-05-01 14:36 49.86606 9.32662 28198 ft 375 kts 287°
2026-05-01 14:37 49.87357 9.28807 27806 ft 372 kts 289°
2026-05-01 14:37 49.88160 9.25013 27439 ft 369 kts 289°
2026-05-01 14:37 49.88980 9.21255 27060 ft 366 kts 290°
2026-05-01 14:37 49.89793 9.17520 26668 ft 364 kts 289°
2026-05-01 14:38 49.90592 9.13804 26280 ft 362 kts 289°
2026-05-01 14:38 49.91368 9.10119 25893 ft 361 kts 289°
2026-05-01 14:38 49.92063 9.06425 25484 ft 360 kts 282°
2026-05-01 14:38 49.92347 9.02568 25080 ft 360 kts 271°
2026-05-01 14:39 49.92313 8.98723 24663 ft 360 kts 269°
2026-05-01 14:39 49.92283 8.94842 24248 ft 360 kts 270°
2026-05-01 14:39 49.92267 8.90953 23825 ft 360 kts 270°
2026-05-01 14:39 49.92110 8.87080 23363 ft 359 kts 260°
2026-05-01 14:40 49.91615 8.83306 22942 ft 357 kts 257°
2026-05-01 14:40 49.91095 8.79550 22535 ft 354 kts 257°
2026-05-01 14:40 49.90585 8.75888 22138 ft 352 kts 257°
2026-05-01 14:40 49.90067 8.72183 21727 ft 350 kts 257°
2026-05-01 14:41 49.89551 8.68507 21330 ft 349 kts 257°
2026-05-01 14:41 49.89033 8.64835 20921 ft 347 kts 256°
2026-05-01 14:41 49.88516 8.61184 20516 ft 346 kts 256°
2026-05-01 14:41 49.87999 8.57540 20108 ft 345 kts 256°
2026-05-01 14:42 49.87487 8.53912 19709 ft 345 kts 256°
2026-05-01 14:42 49.87022 8.50258 19301 ft 345 kts 262°
2026-05-01 14:42 49.86980 8.46556 18902 ft 345 kts 274°
2026-05-01 14:42 49.87421 8.42894 18489 ft 346 kts 283°
2026-05-01 14:43 49.87989 8.39268 18054 ft 345 kts 282°
2026-05-01 14:43 49.88541 8.35667 17648 ft 343 kts 282°
2026-05-01 14:43 49.89086 8.32069 17250 ft 341 kts 282°
2026-05-01 14:43 49.89625 8.28493 16857 ft 340 kts 282°
2026-05-01 14:44 49.90160 8.24931 16460 ft 339 kts 282°
2026-05-01 14:44 49.91234 8.17818 15679 ft 338 kts 282°
2026-05-01 14:44 49.91769 8.14273 15288 ft 338 kts 282°
2026-05-01 14:45 49.92303 8.10718 14897 ft 337 kts 282°
2026-05-01 14:45 49.93363 8.03633 14104 ft 337 kts 282°
2026-05-01 14:45 49.93892 8.00092 13687 ft 337 kts 282°
2026-05-01 14:46 49.94422 7.96561 13284 ft 335 kts 282°
2026-05-01 14:46 49.95624 7.89635 12496 ft 325 kts 285°
2026-05-01 14:46 49.96267 7.86341 12129 ft 313 kts 285°
2026-05-01 14:47 49.96895 7.83168 11765 ft 302 kts 285°
2026-05-01 14:47 49.97493 7.80109 11414 ft 292 kts 284°
2026-05-01 14:47 49.98066 7.77142 11080 ft 283 kts 284°
2026-05-01 14:48 49.99413 7.71353 10396 ft 288 kts 294°
2026-05-01 14:48 50.00299 7.68545 10051 ft 290 kts 294°
2026-05-01 14:48 50.01650 7.64258 9497 ft 293 kts 294°
2026-05-01 14:49 50.03646 7.58765 8934 ft 288 kts 300°
2026-05-01 14:49 50.06671 7.55251 8685 ft 277 kts 353°
2026-05-01 14:50 50.09631 7.56362 8446 ft 262 kts 36°
2026-05-01 14:50 50.13550 7.57072 7849 ft 262 kts 330°
2026-05-01 14:51 50.14971 7.55262 7385 ft 267 kts 306°
2026-05-01 14:51 50.15880 7.49826 6388 ft 269 kts 256°
2026-05-01 14:52 50.14508 7.44869 6141 ft 241 kts 219°
2026-05-01 14:52 50.13097 7.43561 5833 ft 235 kts 201°
2026-05-01 14:52 50.10086 7.41421 4983 ft 247 kts 206°
2026-05-01 14:53 50.08621 7.40034 4595 ft 242 kts 209°
2026-05-01 14:53 50.07242 7.38655 4271 ft 229 kts 209°
2026-05-01 14:53 50.05935 7.37345 3981 ft 216 kts 208°
2026-05-01 14:53 50.04708 7.36124 3717 ft 203 kts 208°
2026-05-01 14:54 50.03561 7.34988 3483 ft 191 kts 208°
2026-05-01 14:54 50.02456 7.33893 3197 ft 182 kts 206°
2026-05-01 14:54 50.01442 7.32886 2984 ft 161 kts 207°
2026-05-01 14:54 50.00581 7.32034 2790 ft 148 kts 210°
2026-05-01 14:55 49.99724 7.31188 2564 ft 144 kts 207°
2026-05-01 14:55 49.98897 7.30371 2393 ft 140 kts 206°
2026-05-01 14:55 49.98095 7.29579 2190 ft 140 kts 205°
2026-05-01 14:55 49.97265 7.28761 1997 ft 141 kts 203°
2026-05-01 14:56 49.96456 7.27960 1805 ft 138 kts 203°
2026-05-01 14:56 49.95643 7.27158 1629 ft 139 kts 204°
2026-05-01 14:56 49.94914 7.26442 1618 ft 104 kts 213°
2026-05-01 14:56 49.94471 7.25999 1625 ft 64 kts 212°
2026-05-01 14:57 49.94184 7.25708 1632 ft 44 kts 212°
2026-05-01 14:57 49.93913 7.25593 1632 ft 17 kts 120°
2026-05-01 14:57 49.93854 7.25737 1633 ft 15 kts 122°
2026-05-01 14:58 49.93830 7.25798 1633 ft 1 kts 120°
2026-05-01 14:58 49.93829 7.25799 1633 ft 0 kts 120°
2026-05-01 14:58 49.93825 7.25809 1633 ft 4 kts 121°
2026-05-01 14:59 49.93821 7.25863 1634 ft 6 kts 75°
2026-05-01 14:59 49.93866 7.25926 1632 ft 12 kts 32°
2026-05-01 14:59 49.93948 7.26009 1630 ft 16 kts 33°
2026-05-01 14:59 49.94051 7.26113 1631 ft 20 kts 33°
2026-05-01 15:00 49.94271 7.26340 1626 ft 20 kts 33°
2026-05-01 15:00 49.94393 7.26465 1627 ft 20 kts 33°
2026-05-01 15:00 49.94505 7.26580 1619 ft 20 kts 33°
2026-05-01 15:01 49.94586 7.26641 1620 ft 12 kts 358°
2026-05-01 15:01 49.94671 7.26672 1621 ft 15 kts 32°
2026-05-01 15:01 49.94722 7.26748 1617 ft 9 kts 90°
2026-05-01 15:01 49.94690 7.26831 1617 ft 7 kts 126°
2026-05-01 15:02 49.94656 7.26818 1621 ft 3 kts 216°
2026-05-01 15:02 49.94643 7.26805 1620 ft 2 kts 211°
2026-05-01 15:02 49.94639 7.26802 1619 ft 0 kts 211°